W5SDC Weather Reports


Display with metric or nautical units.
time (UTC)temp
F
wind
direction
speed
MPH
gust
MPH
rain 1hr
in
rain 24hr
in
rain mn
in
humidity
%
barometer
mb
20260509155051 79 216 6.0 9.0 0.00 0.00 0.00 87 1012.6
20260509154518 80 188 8.0 12.0 0.00 0.00 0.00 85 1012.6
20260509154025 81 198 7.0 10.0 0.00 0.00 0.00 85 1012.5
20260509153532 80 187 5.0 8.0 0.00 0.00 0.00 86 1012.4
20260509153020 80 209 7.0 10.0 0.00 0.00 0.00 86 1012.4
20260509152527 82 201 6.0 10.0 0.00 0.00 0.00 84 1012.1
20260509152033 83 196 5.0 8.0 0.00 0.00 0.00 82 1012.0
20260509151522 85 149 4.0 6.0 0.00 0.00 0.00 78 1012.0
20260509151028 87 229 6.0 10.0 0.00 0.00 0.00 75 1011.9
20260509150517 87 210 5.0 7.0 0.00 0.00 0.00 76 1011.9
20260509150023 87 212 3.0 5.0 0.00 0.00 0.00 75 1012.0
20260509145530 86 210 3.0 6.0 0.00 0.00 0.00 76 1012.0
20260509145018 87 192 4.0 8.0 0.00 0.00 0.00 76 1012.0
20260509144545 85 225 3.0 5.0 0.00 0.00 0.00 77 1012.0
20260509144111 86 216 5.0 7.0 0.00 0.00 0.00 77 1012.0
20260509143519 86 211 3.0 4.0 0.00 0.00 0.00 76 1011.8
20260509143026 87 207 2.0 4.0 0.00 0.00 0.00 76 1011.8
20260509142533 86 261 2.0 3.0 0.00 0.00 0.00 77 1011.7
20260509142021 84 188 3.0 5.0 0.00 0.00 0.00 78 1011.7
20260509141528 84 178 2.0 4.0 0.00 0.00 0.00 80 1011.5
20260509141016 82 186 3.0 5.0 0.00 0.00 0.00 83 1011.1
20260509140543 82 201 4.0 7.0 0.00 0.00 0.00 84 1011.1
20260509140029 81 197 3.0 5.0 0.00 0.00 0.00 86 1011.3
20260509135538 80 182 4.0 7.0 0.00 0.00 0.00 87 1011.3
20260509135024 80 205 4.0 6.0 0.00 0.00 0.00 88 1011.3
20260509134530 79 146 4.0 6.0 0.00 0.00 0.00 90 1011.2
20260509134019 78 180 4.0 8.0 0.00 0.00 0.00 90 1011.2
20260509133526 77 181 4.0 5.0 0.00 0.00 0.00 92 1011.4
20260509133032 76 183 4.0 7.0 0.00 0.00 0.00 94 1011.4
20260509132520 76 165 5.0 8.0 0.00 0.00 0.00 96 1011.5
20260509132027 75 210 6.0 10.0 0.00 0.00 0.00 97 1011.5
20260509131515 75 169 5.0 7.0 0.00 0.00 0.00 97 1011.5
20260509131042 74 170 6.0 9.0 0.00 0.00 0.00 99 1011.4
20260509130528 74 184 6.0 8.0 0.00 0.00 0.00 99 1011.4
20260509130037 74 158 5.0 7.0 0.00 0.00 0.00 99 1011.9
20260509125523 73 186 3.0 5.0 0.00 0.00 0.00 99 1011.9
20260509125030 73 187 2.0 3.0 0.00 0.00 0.00 99 1011.9
20260509124558 72 201 1.0 2.0 0.00 0.00 0.00 99 1011.8
20260509124045 72 223 1.0 3.0 0.00 0.00 0.00 99 1011.9
20260509123531 72 270 0.0 1.0 0.00 0.00 0.00 99 1011.9
20260509123019 71 283 2.0 4.0 0.00 0.00 0.00 99 1011.9
20260509122527 71 284 3.0 4.0 0.00 0.00 0.00 99 1011.8
20260509122033 71 268 2.0 3.0 0.00 0.00 0.00 99 1011.7
20260509121521 71 255 0.0 2.0 0.00 0.00 0.00 99 1011.9
20260509121028 71 301 1.0 2.0 0.00 0.00 0.00 99 1012.2
20260509120516 71 307 2.0 3.0 0.00 0.00 0.00 99 1012.2
20260509120023 71 334 2.0 4.0 0.00 0.00 0.00 99 1012.2
20260509115529 71 348 2.0 4.0 0.00 0.00 0.00 99 1012.2
20260509115018 71 293 0.0 2.0 0.00 0.00 0.00 99 1012.2
20260509114525 71 336 2.0 3.0 0.00 0.00 0.00 99 1012.2
20260509114031 71 34 1.0 3.0 0.00 0.00 0.00 99 1012.3
20260509113519 71 0.0 0.0 0.00 0.00 0.00 99 1012.4
20260509113026 71 203 1.0 2.0 0.00 0.00 0.00 99 1012.4
20260509112553 71 177 1.0 2.0 0.00 0.00 0.00 99 1012.8
20260509112041 71 154 1.0 3.0 0.00 0.00 0.00 99 1012.9
20260509111527 71 0.0 0.0 0.00 0.00 0.00 99 1013.0
20260509111015 71 0.0 0.0 0.00 0.00 0.00 99 1013.1
20260509110522 71 0.0 0.0 0.00 0.00 0.00 99 1013.1
20260509110029 71 0 0.0 1.0 0.00 0.00 0.00 99 1012.9
20260509105517 71 8 2.0 4.0 0.00 0.00 0.00 99 1012.9
20260509105024 71 355 4.0 5.0 0.00 0.00 0.00 99 1013.1
20260509104530 71 311 2.0 4.0 0.00 0.00 0.00 99 1013.2
20260509104039 71 309 2.0 2.0 0.00 0.00 0.00 99 1013.2
20260509103525 71 283 3.0 5.0 0.00 0.00 0.00 99 1013.2
20260509103032 71 319 4.0 6.0 0.00 0.00 0.00 99 1013.2
20260509102520 71 315 3.0 4.0 0.00 0.00 0.00 99 1013.0
20260509102027 71 317 3.0 5.0 0.00 0.00 0.00 99 1012.9
20260509101533 71 312 3.0 4.0 0.00 0.00 0.00 99 1012.7
20260509101122 71 328 3.0 4.0 0.00 0.00 0.00 99 1012.4
20260509100528 71 325 3.0 4.0 0.00 0.00 0.00 99 1012.4
20260509100016 72 324 2.0 3.0 0.00 0.00 0.00 99 1012.2
20260509095523 72 329 2.0 3.0 0.00 0.00 0.00 99 1012.2
20260509095029 72 339 3.0 3.0 0.00 0.00 0.00 99 1011.9
20260509094538 72 356 3.0 4.0 0.00 0.00 0.00 99 1011.7
20260509094024 71 16 1.0 3.0 0.00 0.00 0.00 99 1011.7
20260509093551 71 106 1.0 2.0 0.00 0.00 0.00 99 1011.5
20260509093020 71 0.0 0.0 0.00 0.00 0.00 99 1011.5
20260509092526 71 0.0 0.0 0.00 0.00 0.00 99 1011.4
20260509092053 71 0.0 0.0 0.00 0.00 0.00 99 1011.3
20260509091521 72 288 0.0 2.0 0.00 0.00 0.00 99 1011.3
20260509091048 72 30 1.0 2.0 0.00 0.00 0.00 99 1011.3
20260509090516 72 348 1.0 4.0 0.00 0.00 0.00 99 1011.3
20260509090023 72 24 2.0 3.0 0.00 0.00 0.00 99 1011.7
20260509085529 72 44 1.0 3.0 0.00 0.00 0.00 99 1011.7
20260509085018 72 348 1.0 3.0 0.00 0.00 0.00 99 1011.7
20260509084524 72 359 3.0 4.0 0.00 0.00 0.00 99 1011.7
20260509084031 72 323 2.0 3.0 0.00 0.00 0.00 99 1011.7
20260509083519 72 332 1.0 3.0 0.00 0.00 0.00 99 1011.9
20260509083026 72 0.0 0.0 0.00 0.00 0.00 99 1011.9
20260509082532 72 338 0.0 2.0 0.00 0.00 0.00 99 1011.9
20260509082020 72 321 1.0 3.0 0.00 0.00 0.00 99 1011.9
20260509081527 72 320 2.0 3.0 0.00 0.00 0.00 99 1012.0
20260509081036 72 312 1.0 2.0 0.00 0.00 0.00 99 1012.2
20260509080522 72 0.0 0.0 0.00 0.00 0.00 99 1012.2
20260509080029 72 0.0 0.0 0.00 0.00 0.00 99 1012.2
20260509075517 72 132 1.0 3.0 0.00 0.00 0.00 99 1012.2
20260509075044 72 131 1.0 2.0 0.00 0.00 0.00 99 1012.0
20260509074531 72 69 0.0 2.0 0.00 0.00 0.00 99 1011.9
20260509074018 72 356 1.0 3.0 0.00 0.00 0.00 99 1012.0
20260509073525 72 0.0 0.0 0.00 0.00 0.00 99 1012.2
20260509073052 72 0.0 0.0 0.00 0.00 0.00 99 1012.2
20260509072520 72 0.0 0.0 0.00 0.00 0.00 99 1012.3
20260509072027 72 0.0 0.0 0.00 0.00 0.00 99 1012.4
20260509071535 72 0.0 0.0 0.00 0.00 0.00 99 1012.4
20260509071022 72 0.0 0.0 0.00 0.00 0.00 99 1012.4
20260509070528 72 0.0 0.0 0.00 0.00 0.00 99 1012.4
20260509070017 72 0.0 0.0 0.00 0.00 0.00 99 1012.2
20260509065523 72 0.0 0.0 0.00 0.00 0.00 99 1012.2
20260509065030 72 270 0.0 1.0 0.00 0.00 0.00 99 1012.2
20260509064518 72 274 2.0 4.0 0.00 0.00 0.00 99 1012.2
20260509064025 72 335 1.0 3.0 0.00 0.00 0.00 99 1012.2
20260509063531 72 0.0 0.0 0.00 0.00 0.00 99 1012.2
20260509063020 72 0.0 0.0 0.00 0.00 0.00 99 1012.2
20260509062526 72 284 1.0 2.0 0.00 0.00 0.00 99 1012.1
20260509062033 72 203 1.0 3.0 0.00 0.00 0.00 99 1012.0
20260509061521 72 199 0.0 3.0 0.00 0.00 0.00 99 1011.9
20260509061028 72 145 1.0 3.0 0.00 0.00 0.00 99 1011.7
20260509060516 72 168 3.0 5.0 0.00 0.00 0.00 99 1011.7
20260509060023 72 186 4.0 6.0 0.00 0.00 0.00 99 1011.7
20260509055529 72 179 4.0 5.0 0.00 0.00 0.00 99 1011.7
20260509055018 72 192 5.0 7.0 0.00 0.00 0.00 99 1011.7
20260509054524 72 197 2.0 4.0 0.00 0.00 0.00 99 1011.7
20260509054031 71 211 2.0 4.0 0.00 0.00 0.00 99 1011.5
20260509053519 71 190 3.0 4.0 0.00 0.00 0.00 99 1010.8
20260509053046 71 202 3.0 5.0 0.00 0.00 0.00 99 1010.8
20260509052532 71 171 3.0 5.0 0.00 0.00 0.00 99 1010.7
20260509052041 71 159 4.0 7.0 0.00 0.00 0.00 99 1010.6
20260509051527 71 137 4.0 6.0 0.00 0.00 0.00 99 1010.6
20260509051016 71 160 4.0 5.0 0.00 0.00 0.00 99 1010.7
20260509050522 71 161 3.0 5.0 0.00 0.00 0.00 99 1010.7
20260509050029 71 148 3.0 4.0 0.00 0.00 0.00 99 1010.7
20260509045537 71 168 3.0 5.0 0.00 0.00 0.00 99 1010.7
20260509045024 71 156 3.0 4.0 0.00 0.00 0.00 99 1010.9
20260509044530 71 173 1.0 2.0 0.00 0.00 0.00 99 1011.0
20260509044019 71 158 0.0 2.0 0.00 0.00 0.00 99 1011.1
20260509043525 71 0.0 0.0 0.00 0.00 0.00 98 1011.2
20260509043032 71 173 1.0 3.0 0.00 0.00 0.00 98 1011.2
20260509042540 72 173 1.0 3.0 0.00 0.00 0.00 97 1011.3
20260509042027 72 186 2.0 4.0 0.00 0.00 0.00 97 1011.3
20260509041534 72 141 3.0 3.0 0.00 0.00 0.00 97 1011.4
20260509041022 72 172 2.0 3.0 0.00 0.00 0.00 97 1011.4
20260509040528 72 170 3.0 4.0 0.00 0.00 0.00 96 1011.4
20260509040037 72 184 2.0 5.0 0.00 0.00 0.00 96 1011.3
20260509035523 72 179 3.0 4.0 0.00 0.00 0.00 96 1011.3
20260509035050 72 184 1.0 4.0 0.00 0.00 0.00 96 1011.2
20260509034538 72 162 1.0 3.0 0.00 0.00 0.00 96 1011.1
20260509034025 72 169 3.0 5.0 0.00 0.00 0.00 96 1011.1
20260509033531 72 182 3.0 5.0 0.00 0.00 0.00 96 1010.9
20260509033019 73 154 3.0 5.0 0.00 0.00 0.00 95 1010.9
20260509032546 73 192 4.0 5.0 0.00 0.00 0.00 95 1010.9
20260509032033 73 182 3.0 5.0 0.00 0.00 0.00 95 1010.9
20260509031521 73 176 3.0 5.0 0.00 0.00 0.00 95 1010.9
20260509031028 73 170 3.0 4.0 0.00 0.00 0.00 95 1010.9
20260509030516 73 176 3.0 5.0 0.00 0.00 0.00 94 1010.9
20260509030023 73 179 4.0 6.0 0.00 0.00 0.00 94 1010.8
20260509025529 74 175 3.0 5.0 0.00 0.00 0.00 93 1010.8
20260509025018 74 166 5.0 7.0 0.00 0.00 0.00 93 1010.7
20260509024545 74 177 4.0 6.0 0.00 0.00 0.00 93 1010.7
20260509024031 74 132 3.0 5.0 0.00 0.00 0.00 92 1010.7
20260509023519 74 159 3.0 5.0 0.00 0.00 0.00 92 1010.6
20260509023026 74 150 4.0 5.0 0.00 0.00 0.00 92 1010.6
20260509022532 74 170 4.0 6.0 0.00 0.00 0.00 92 1010.4
20260509022021 74 173 3.0 4.0 0.00 0.00 0.00 91 1010.3
20260509021527 75 158 3.0 5.0 0.00 0.00 0.00 91 1010.2
20260509021016 75 167 2.0 4.0 0.00 0.00 0.00 90 1010.2
20260509020523 75 169 3.0 4.0 0.00 0.00 0.00 90 1010.2
20260509020029 75 159 4.0 6.0 0.00 0.00 0.00 90 1010.1
20260509015517 75 156 4.0 7.0 0.00 0.00 0.00 89 1010.1
20260509015024 76 183 5.0 6.0 0.00 0.00 0.00 89 1009.9
20260509014530 76 151 5.0 7.0 0.00 0.00 0.00 88 1009.8
20260509014019 76 155 4.0 6.0 0.00 0.00 0.00 88 1009.8
20260509013525 76 147 2.0 5.0 0.00 0.00 0.00 87 1009.8
20260509013032 76 196 4.0 7.0 0.00 0.00 0.00 87 1009.8
20260509012520 76 182 4.0 8.0 0.00 0.00 0.00 86 1009.7
20260509012027 77 170 5.0 7.0 0.00 0.00 0.00 86 1009.7
20260509011516 77 136 6.0 9.0 0.00 0.00 0.00 85 1009.7
20260509011022 77 135 6.0 8.0 0.00 0.00 0.00 85 1009.8
20260509010529 77 140 5.0 7.0 0.00 0.00 0.00 84 1009.8
20260509010017 77 160 4.0 5.0 0.00 0.00 0.00 84 1009.8
20260509005524 77 162 5.0 8.0 0.00 0.00 0.00 84 1009.8
20260509005030 77 155 5.0 7.0 0.00 0.00 0.00 84 1009.8
20260509004519 77 162 6.0 8.0 0.00 0.00 0.00 84 1009.8
20260509004025 77 164 5.0 8.0 0.00 0.00 0.00 84 1009.8
20260509003532 78 148 3.0 5.0 0.00 0.00 0.00 84 1009.8
20260509003020 78 159 4.0 7.0 0.00 0.00 0.00 83 1009.8
20260509002547 78 168 5.0 7.0 0.00 0.00 0.00 83 1009.8
20260509002033 78 178 5.0 6.0 0.00 0.00 0.00 83 1009.8
20260509001602 78 162 3.0 5.0 0.00 0.00 0.00 83 1009.9
20260509001028 78 152 4.0 8.0 0.00 0.00 0.00 83 1010.0
20260509000517 78 151 3.0 4.0 0.00 0.00 0.00 83 1010.0
20260509000043 78 166 4.0 6.0 0.00 0.00 0.00 83 1010.0
20260508235530 78 153 5.0 7.0 0.00 0.00 0.00 83 1010.0
20260508235018 78 181 4.0 6.0 0.00 0.00 0.00 83 1010.0
20260508234524 78 170 5.0 6.0 0.00 0.00 0.00 82 1010.0
20260508234031 78 180 5.0 7.0 0.00 0.00 0.00 82 1010.0
20260508233520 78 154 5.0 6.0 0.00 0.00 0.00 81 1009.8
20260508233026 78 168 5.0 6.0 0.00 0.00 0.00 81 1009.8
20260508232532 79 168 4.0 7.0 0.00 0.00 0.00 81 1009.8
20260508232021 79 157 4.0 5.0 0.00 0.00 0.00 81 1009.8
20260508231528 79 167 5.0 6.0 0.00 0.00 0.00 81 1009.8
20260508231016 79 123 5.0 7.0 0.00 0.00 0.00 80 1009.8
20260508230522 79 111 5.0 6.0 0.00 0.00 0.00 80 1009.8
20260508230109 79 146 5.0 7.0 0.00 0.00 0.00 80 1009.8
20260508225537 79 153 5.0 8.0 0.00 0.00 0.00 80 1009.8
20260508225024 80 146 5.0 7.0 0.00 0.00 0.00 79 1009.8
20260508224531 80 156 4.0 6.0 0.00 0.00 0.00 79 1009.8
20260508224019 80 161 6.0 8.0 0.00 0.00 0.00 78 1009.8
20260508223525 80 160 5.0 7.0 0.00 0.00 0.00 78 1009.8
20260508223032 80 161 6.0 8.0 0.00 0.00 0.00 78 1009.8
20260508222520 81 132 4.0 5.0 0.00 0.00 0.00 77 1009.8
20260508222107 81 121 4.0 7.0 0.00 0.00 0.00 76 1009.8
20260508221515 81 99 5.0 6.0 0.00 0.00 0.00 77 1009.8
20260508221042 81 127 5.0 7.0 0.00 0.00 0.00 76 1009.8
20260508220528 81 146 6.0 9.0 0.00 0.00 0.00 77 1009.8
20260508220117 80 139 7.0 9.0 0.00 0.00 0.00 78 1010.1
20260508215543 80 145 6.0 9.0 0.00 0.00 0.00 77 1010.1
20260508215030 81 128 5.0 7.0 0.00 0.00 0.00 77 1010.1
20260508214518 81 116 5.0 7.0 0.00 0.00 0.00 76 1010.2
20260508214045 82 118 6.0 8.0 0.00 0.00 0.00 75 1010.2
20260508213551 82 147 5.0 7.0 0.00 0.00 0.00 75 1010.3
20260508213040 81 131 5.0 8.0 0.00 0.00 0.00 75 1010.3
20260508212526 80 122 5.0 7.0 0.00 0.00 0.00 76 1010.5
20260508212033 80 150 6.0 7.0 0.00 0.00 0.00 76 1010.5
20260508211521 80 147 6.0 8.0 0.00 0.00 0.00 76 1010.5
20260508211028 81 143 5.0 8.0 0.00 0.00 0.00 75 1010.6
20260508210536 82 109 6.0 9.0 0.00 0.00 0.00 74 1010.6
20260508210023 82 123 4.0 6.0 0.00 0.00 0.00 73 1010.8
20260508205549 81 124 3.0 5.0 0.00 0.00 0.00 73 1010.8
20260508205018 81 145 4.0 9.0 0.00 0.00 0.00 75 1011.0
20260508204524 80 144 4.0 6.0 0.00 0.00 0.00 76 1011.1
20260508204031 79 51 3.0 5.0 0.00 0.00 0.00 76 1011.1
20260508203519 79 76 4.0 8.0 0.00 0.00 0.00 76 1011.1
20260508203026 79 72 4.0 7.0 0.00 0.00 0.00 75 1011.1
20260508202532 80 156 6.0 9.0 0.00 0.00 0.00 75 1011.2
20260508202021 79 146 5.0 7.0 0.00 0.00 0.00 76 1011.2
20260508201547 79 115 5.0 8.0 0.00 0.00 0.00 76 1011.3
20260508201016 80 106 4.0 7.0 0.00 0.00 0.00 76 1011.5
20260508200522 80 95 4.0 7.0 0.00 0.00 0.00 75 1011.5
20260508200029 79 36 5.0 6.0 0.00 0.00 0.00 75 1011.7
20260508195537 79 44 5.0 7.0 0.00 0.00 0.00 76 1011.7
20260508195023 79 106 5.0 7.0 0.00 0.00 0.00 76 1011.8
20260508194530 79 115 4.0 6.0 0.00 0.00 0.00 76 1011.8
20260508194018 79 96 3.0 4.0 0.00 0.00 0.00 75 1011.9
20260508193525 79 148 4.0 6.0 0.00 0.00 0.00 76 1011.9
20260508193031 79 137 4.0 6.0 0.00 0.00 0.00 75 1011.9
20260508192520 79 121 4.0 6.0 0.00 0.00 0.00 75 1012.0
20260508192026 79 107 4.0 6.0 0.00 0.00 0.00 74 1012.0
20260508191533 80 183 3.0 5.0 0.00 0.00 0.00 74 1012.0
20260508191022 80 314 2.0 4.0 0.00 0.00 0.00 74 1012.0
20260508190528 79 170 2.0 6.0 0.00 0.00 0.00 74 1012.0
20260508190056 79 11 4.0 6.0 0.00 0.00 0.00 74 1012.4
20260508185523 79 95 3.0 4.0 0.00 0.00 0.00 74 1012.4
20260508185030 80 164 3.0 5.0 0.00 0.00 0.00 73 1012.3
20260508184518 80 35 4.0 7.0 0.00 0.00 0.00 72 1012.2
20260508184025 80 8 3.0 6.0 0.00 0.00 0.00 74 1012.3
20260508183551 79 65 4.0 7.0 0.00 0.00 0.00 74 1012.6
20260508183020 78 100 3.0 7.0 0.00 0.00 0.00 74 1012.6
20260508182526 78 73 4.0 6.0 0.00 0.00 0.00 74 1012.8
20260508182033 78 82 4.0 6.0 0.00 0.00 0.00 74 1012.9
20260508181702 78 57 4.0 6.0 0.00 0.00 0.00 74 1012.9
20260508181027 78 334 4.0 6.0 0.00 0.00 0.00 74 1012.9
20260508180516 77 340 5.0 6.0 0.00 0.00 0.00 74 1012.9
20260508180023 77 34 3.0 5.0 0.00 0.00 0.00 75 1013.1
20260508175529 77 52 3.0 5.0 0.00 0.00 0.00 75 1013.1
20260508175017 77 311 3.0 5.0 0.00 0.00 0.00 74 1013.2
20260508174524 76 305 2.0 4.0 0.00 0.00 0.00 75 1013.3
20260508174031 76 319 3.0 6.0 0.00 0.00 0.00 76 1013.3
20260508173539 75 348 3.0 5.0 0.00 0.00 0.00 76 1013.4
20260508173025 75 350 3.0 5.0 0.00 0.00 0.00 76 1013.4
20260508172532 74 330 3.0 5.0 0.00 0.00 0.00 77 1013.4
20260508172020 73 321 3.0 4.0 0.00 0.00 0.00 79 1013.5
20260508171527 72 317 4.0 6.0 0.00 0.00 0.00 79 1013.5
20260508171015 73 330 4.0 7.0 0.00 0.00 0.00 79 1013.5
20260508170522 72 319 3.0 5.0 0.00 0.00 0.00 80 1013.5
20260508170029 72 7 4.0 6.0 0.00 0.00 0.00 79 1013.8
20260508165537 72 318 3.0 4.0 0.00 0.00 0.00 78 1013.8
20260508165043 72 321 4.0 5.0 0.00 0.00 0.00 78 1014.0
20260508164530 72 338 0.0 3.0 0.00 0.00 0.00 78 1014.1
20260508164038 72 318 1.0 3.0 0.00 0.00 0.00 79 1014.1
20260508163525 72 0.0 0.0 0.00 0.00 0.00 78 1014.3
20260508163031 72 165 1.0 2.0 0.00 0.00 0.00 77 1014.3
20260508162520 73 179 1.0 3.0 0.00 0.00 0.00 76 1014.2
20260508162026 73 135 3.0 4.0 0.00 0.00 0.00 75 1014.2
20260508161533 73 29 2.0 3.0 0.00 0.00 0.00 76 1014.3
20260508161041 73 348 2.0 3.0 0.00 0.00 0.00 75 1014.4
20260508160528 72 356 1.0 3.0 0.00 0.00 0.00 77 1014.4
20260508160016 72 113 0.0 2.0 0.00 0.00 0.00 78 1014.5
20260508155523 71 203 0.0 3.0 0.00 0.00 0.00 79 1014.5